Date String (YYYY-MM-DD hh:mm:ss) UTC,Instrument flags,absolute air pressure of the measurement (hPa),sample flow rate (lpm),inlet stack bypass flow (lpm),air temperature of the measurement (°C),ambient temperature measured by the external sensor (°C),aerosol sample conditioner tube jacket temperature (°C),OPC LED temperature (°C),internal box temperature (°C),relative humidity of the measurement (%),span deviation,mass concentration of particles derived from Lorenz-Mie calculation of OPC scattering (μg/m³),mass concentration of particles derived from Lorenz-Mie calculation of OPC scattering (μg/m³),mass concentration of particles derived from Lorenz-Mie calculation of OPC scattering (μg/m³)
DateTimeUTC,F1_M11,P_M11,Q1_M11,Q2_M11,T1_M11,T2_M11,T3_M11,T4_M11,T5_M11,U1_M11,ZSPAN_M11,X0_M11,X2_M11,X1_M11
2023-10-31 13:00:00,SystemResetWarning,0837.4,4.99,000.00,021.1,020.0,000.0,029.5,022.4,11.3,0000.0,0009.69,0004.99,0004.55
2023-10-31 13:01:00,SystemResetWarning,0837.4,4.99,000.00,021.1,019.9,000.0,029.5,022.3,11.4,0000.0,0009.15,0005.00,0004.56
2023-10-31 13:02:00,SystemResetWarning,0837.4,4.99,000.00,021.0,019.9,000.0,029.4,022.3,11.4,0000.0,0009.02,0004.99,0004.55
2023-10-31 13:03:00,SystemResetWarning,0837.4,5.00,000.00,021.0,019.8,000.0,029.4,022.2,11.5,0000.0,0009.05,0005.00,0004.56
2023-10-31 13:04:00,SystemResetWarning,0837.4,5.01,000.00,020.9,019.7,000.0,029.4,022.2,11.5,0000.0,0008.81,0005.04,0004.57
2023-10-31 13:05:00,SystemResetWarning,0837.4,5.01,000.00,020.9,019.7,000.0,029.4,022.2,11.6,0000.5,0008.70,0005.03,0004.57
2023-10-31 13:06:00,SystemResetWarning,0837.4,5.01,000.00,020.9,019.7,000.0,029.4,022.2,11.7,0002.6,0008.65,0005.00,0004.56
2023-10-31 13:07:00,SystemResetWarning,0837.4,5.01,000.00,020.9,019.7,000.0,029.4,022.2,11.8,0003.0,0008.63,0005.01,0004.57
2023-10-31 13:08:00,SystemResetWarning,0837.6,5.00,000.00,021.0,020.3,000.0,029.4,022.8,11.8,0002.7,0008.60,0004.99,0004.56
2023-10-31 13:09:00,SystemResetWarning,0837.6,5.00,000.00,021.2,021.1,000.0,029.4,023.2,11.7,0002.7,0008.67,0005.02,0004.57
2023-10-31 13:10:00,SystemResetWarning,0837.6,4.99,000.00,021.3,021.3,000.0,029.4,023.1,11.7,0003.1,0008.65,0005.01,0004.57
2023-10-31 13:11:00,SystemResetWarning,0837.5,4.98,000.00,021.3,021.1,000.0,029.5,022.9,11.6,0003.2,0008.70,0005.04,0004.58
2023-10-31 13:12:00,SystemResetWarning,0837.6,5.01,000.00,021.3,020.9,000.0,029.5,022.8,11.6,0003.0,0008.65,0005.05,0004.59
2023-10-31 13:13:00,SystemResetWarning,0837.6,5.01,000.00,021.3,020.7,000.0,029.5,022.8,11.6,0002.8,0008.68,0005.07,0004.60
2023-10-31 13:14:00,SystemResetWarning,0837.5,5.01,000.00,021.2,020.5,000.0,029.5,022.7,11.6,0002.4,0008.54,0005.05,0004.60
2023-10-31 13:15:00,SystemResetWarning,0837.5,5.00,000.00,021.2,020.3,000.0,029.5,022.6,11.6,0002.8,0008.48,0005.00,0004.61
2023-10-31 13:16:00,SystemResetWarning,0837.5,5.00,000.00,021.2,020.2,000.0,029.5,022.6,11.7,0000.0,0008.63,0005.01,0004.62
2023-10-31 13:17:00,SystemResetWarning,0837.5,5.00,000.00,021.1,020.2,000.0,029.5,022.5,11.7,0000.0,0008.23,0005.02,0004.63
2023-10-31 13:18:00,SystemResetWarning,0837.5,5.00,000.00,021.1,020.1,000.0,029.5,022.5,11.7,0000.0,0008.07,0005.05,0004.65
2023-10-31 13:19:00,SystemResetWarning,0837.5,4.99,000.00,021.1,020.0,000.0,029.5,022.4,11.7,0000.6,0007.98,0005.06,0004.69
2023-10-31 13:20:00,SystemResetWarning,0837.5,5.00,000.00,021.0,019.9,000.0,029.5,022.4,11.7,0003.3,0008.03,0005.09,0004.72
2023-10-31 13:21:00,SystemResetWarning,0837.5,5.00,000.00,021.0,019.8,000.0,029.5,022.3,11.8,0002.7,0008.16,0005.15,0004.74
2023-10-31 13:22:00,SystemResetWarning,0837.4,5.00,000.00,021.0,019.8,000.0,029.4,022.3,11.9,0002.8,0008.22,0005.17,0004.77
2023-10-31 13:23:00,SystemResetWarning,0837.4,5.00,000.00,020.9,019.7,000.0,029.4,022.3,11.9,0002.7,0008.24,0005.18,0004.79
2023-10-31 13:24:00,SystemResetWarning,0837.4,5.00,000.00,020.9,019.7,000.0,029.4,022.2,12.0,0003.0,0008.21,0005.18,0004.81
2023-10-31 13:25:00,SystemResetWarning,0837.5,5.01,000.00,020.9,019.7,000.0,029.4,022.1,12.0,0002.9,0008.32,0005.22,0004.82
2023-10-31 13:26:00,SystemResetWarning,0837.6,5.00,000.00,020.9,019.6,000.0,029.4,022.2,12.0,0003.1,0008.33,0005.26,0004.83
2023-10-31 13:27:00,SystemResetWarning,0837.6,5.01,000.00,021.0,020.1,000.0,029.4,022.7,12.0,0002.7,0008.44,0005.29,0004.84
2023-10-31 13:28:00,SystemResetWarning,0837.6,5.00,000.00,021.1,021.0,000.0,029.4,023.2,11.9,0003.1,0009.05,0005.30,0004.85
2023-10-31 13:29:00,SystemResetWarning,0837.6,4.99,000.00,021.2,021.2,000.0,029.4,023.1,11.9,0002.7,0009.08,0005.30,0004.85
2023-10-31 13:30:00,SystemResetWarning,0837.6,4.99,000.00,021.3,021.1,000.0,029.5,023.0,11.9,0003.1,0009.41,0005.30,0004.86
2023-10-31 13:31:00,SystemResetWarning,0837.6,5.00,000.00,021.3,020.9,000.0,029.5,022.9,12.0,0003.1,0009.49,0005.27,0004.85
2023-10-31 13:32:00,SystemResetWarning,0837.6,5.00,000.00,021.2,020.7,000.0,029.5,022.8,12.0,0003.0,0009.33,0005.20,0004.82
2023-10-31 13:33:00,SystemResetWarning,0837.5,5.00,000.00,021.2,020.6,000.0,029.5,022.7,12.0,0002.5,0009.28,0005.18,0004.81
2023-10-31 13:34:00,SystemResetWarning,0837.5,5.00,000.00,021.2,020.4,000.0,029.5,022.6,12.0,0000.5,0009.39,0005.22,0004.82
2023-10-31 13:35:00,SystemResetWarning,0837.4,5.00,000.00,021.2,020.3,000.0,029.5,022.6,12.1,0000.0,0009.65,0005.27,0004.84
2023-10-31 13:36:00,SystemResetWarning,0837.4,5.00,000.00,021.1,020.2,000.0,029.5,022.5,12.2,-000.5,0009.65,0005.29,0004.87
2023-10-31 13:37:00,SystemResetWarning,0837.4,4.99,000.00,021.1,020.1,000.0,029.5,022.5,12.2,-000.5,0009.58,0005.29,0004.90
2023-10-31 13:38:00,SystemResetWarning,0837.4,5.00,000.00,021.1,020.0,000.0,029.5,022.4,12.1,0000.0,0009.60,0005.33,0004.94
2023-10-31 13:39:00,SystemResetWarning,0837.4,5.01,000.00,021.0,019.9,000.0,029.5,022.3,12.1,0000.0,0009.02,0005.39,0004.97
2023-10-31 13:40:00,SystemResetWarning,0837.5,5.00,000.00,021.0,019.9,000.0,029.4,022.3,12.1,0000.0,0009.04,0005.46,0005.02
2023-10-31 13:41:00,SystemResetWarning,0837.5,5.00,000.00,021.0,019.8,000.0,029.4,022.3,12.1,0000.0,0009.01,0005.56,0005.09
2023-10-31 13:42:00,SystemResetWarning,0837.5,5.00,000.00,020.9,019.7,000.0,029.4,022.2,12.2,0000.0,0008.93,0005.67,0005.17
2023-10-31 13:43:00,SystemResetWarning,0837.5,5.00,000.00,020.9,019.7,000.0,029.4,022.2,12.2,0000.0,0009.13,0005.81,0005.30
2023-10-31 13:44:00,SystemResetWarning,0837.5,5.00,000.00,020.9,019.6,000.0,029.4,022.1,12.1,0000.0,0009.26,0005.92,0005.41
2023-10-31 13:45:00,SystemResetWarning,0837.5,5.01,000.00,021.0,020.1,000.0,029.4,022.6,12.0,0000.0,0009.26,0006.00,0005.51
2023-10-31 13:46:00,SystemResetWarning,0837.6,4.99,000.00,021.1,021.0,000.0,029.4,023.2,11.8,0000.7,0009.22,0006.07,0005.58
2023-10-31 13:47:00,SystemResetWarning,0837.6,4.99,000.00,021.3,021.4,000.0,029.5,023.2,11.7,0001.0,0009.39,0006.17,0005.65
2023-10-31 13:48:00,SystemResetWarning,0837.6,4.99,000.00,021.3,021.3,000.0,029.5,023.0,11.6,0001.2,0009.46,0006.22,0005.70
2023-10-31 13:49:00,SystemResetWarning,0837.6,5.01,000.00,021.3,021.0,000.0,029.5,022.9,11.5,0001.4,0009.53,0006.29,0005.76
2023-10-31 13:50:00,SystemResetWarning,0837.6,5.00,000.00,021.3,020.8,000.0,029.5,022.8,11.5,0000.6,0009.56,0006.33,0005.83
2023-10-31 13:51:00,SystemResetWarning,0837.6,5.00,000.00,021.3,020.6,000.0,029.5,022.7,11.5,0000.6,0009.77,0006.41,0005.88
2023-10-31 13:52:00,SystemResetWarning,0837.6,5.00,000.00,021.2,020.5,000.0,029.5,022.7,11.4,0000.4,0009.91,0006.42,0005.90
2023-10-31 13:53:00,SystemResetWarning,0837.6,4.99,000.00,021.2,020.4,000.0,029.5,022.6,11.4,0000.0,0010.06,0006.41,0005.92
2023-10-31 13:54:00,SystemResetWarning,0837.5,5.00,000.00,021.2,020.2,000.0,029.5,022.5,11.4,0000.0,0009.99,0006.38,0005.90
2023-10-31 13:55:00,SystemResetWarning,0837.5,5.01,000.00,021.1,020.1,000.0,029.5,022.5,11.4,0000.0,0010.12,0006.41,0005.88
2023-10-31 13:56:00,SystemResetWarning,0837.5,5.00,000.00,021.1,019.9,000.0,029.5,022.4,11.4,0000.1,0010.17,0006.42,0005.87
2023-10-31 13:57:00,SystemResetWarning,0837.6,5.00,000.00,021.1,019.9,000.0,029.5,022.3,11.4,-000.0,0010.24,0006.44,0005.89
2023-10-31 13:58:00,SystemResetWarning,0837.6,5.00,000.00,021.0,019.8,000.0,029.5,022.2,11.4,-000.0,0010.27,0006.48,0005.93
2023-10-31 13:59:00,SystemResetWarning,0837.6,5.00,000.00,021.0,019.8,000.0,029.5,022.2,11.4,-000.1,0010.39,0006.55,0005.99
